Dewpoint
55 55 55 55 54 55 56 56 56 56 56 57 57 57 58 58 56 50 26 27 35 60 52 22 13 9 9 9 23 28 27 26 26 25 24 46 47 50 50 48 48 53 55 59 63
54 54 55 54 54 54 55 56 56 56 56 56 57 57 58 58 48 34 42 54 59 60 20 16 14 10 5 10 15 23 27 27 27 27 24 41 48 48 47 47 50 49 60 63 63
53 53 54 53 53 53 54 56 56 56 56 56 56 57 58 55 29 9 58 58 61 56 15 13 11 9 32 30 12 24 27 26 24 27 26 42 47 48 46 45 48 48 60 62 62
52 52 53 52 53 53 54 56 56 55 56 56 57 57 57 48 18 25 66 65 63 45 18 14 11 23 25 14 4 22 17 20 16 21 24 33 45 47 48 45 51 50 61 61 61
52 52 52 52 53 53 54 56 56 55 55 56 56 56 50 24 11 42 64 63 40 21 18 16 11 9 23 3 4 4 4 9 8 14 21 29 40 45 46 47 49 56 60 60 60
51 52 52 52 52 53 55 56 55 55 54 56 56 56 36 4 5 43 47 32 24 23 23 18 12 11 8 6 4 4 4 5 6 6 11 36 37 40 40 45 50 50 50 50 54
51 51 51 52 52 54 55 56 55 54 54 55 56 54 42 10 40 45 34 28 28 25 27 25 18 19 14 13 11 9 21 9 31 11 20 35 33 34 41 41 43 45 46 48 50
51 51 51 51 52 54 56 56 55 54 55 55 56 51 25 27 40 37 44 41 45 30 29 28 24 23 18 14 10 9 10 15 33 35 36 37 30 31 33 34 36 40 43 43 44
51 50 50 51 53 54 55 55 55 55 55 56 49 45 28 41 36 38 35 30 35 40 37 27 19 17 15 10 7 7 7 9 32 32 34 36 32 31 33 33 33 35 37 39 40
52 52 50 51 54 54 54 54 55 54 54 54 50 37 35 29 34 29 34 28 25 24 24 19 13 12 13 9 3 3 8 32 32 29 29 28 28 29 32 33 34 35 36 38 40
51 51 52 51 54 54 51 49 39 39 45 24 23 24 31 35 37 18 23 17 22 20 19 17 14 11 8 12 8 10 16 31 28 28 28 27 27 29 31 32 33 34 34 35 37
51 51 51 52 54 53 50 45 44 43 37 40 34 33 34 35 31 27 17 16 22 18 16 14 12 13 13 11 12 12 27 30 27 28 28 27 27 29 29 28 30 30 29 29 30
52 52 52 53 53 49 42 40 42 39 32 32 40 37 33 33 30 30 16 22 22 18 15 13 14 18 14 12 10 10 22 29 28 27 28 26 26 27 29 27 28 29 29 29 28
52 52 52 53 44 40 39 39 39 38 29 26 36 33 33 32 27 27 20 21 23 19 19 18 20 23 25 21 13 12 13 27 25 26 24 27 22 27 27 28 27 27 28 28 28
52 52 52 53 40 46 43 39 39 34 23 34 37 37 32 25 25 26 26 22 20 21 20 18 23 24 23 24 15 17 18 26 26 21 26 26 24 26 27 26 27 27 27 28 28
52 52 53 50 46 43 41 37 37 30 27 30 31 26 25 27 28 27 24 24 27 26 26 24 27 26 25 25 25 26 25 24 23 20 19 26 24 24 26 26 26 27 27 27 28
51 52 52 46 27 43 36 34 27 27 30 28 28 25 25 24 25 23 19 18 20 21 21 28 27 20 20 23 23 25 20 19 18 19 22 27 24 25 27 27 27 27 27 27 28
50 52 50 49 46 40 35 28 27 26 29 30 29 28 24 26 26 26 22 18 18 26 25 25 24 17 18 18 20 25 20 18 15 23 25 27 24 24 28 28 28 27 26 26 28
50 47 46 36 46 38 33 26 24 31 29 29 31 27 28 28 24 21 19 16 18 20 21 24 21 22 18 19 23 23 18 23 22 27 27 24 23 24 26 28 27 26 25 26 28
34 36 38 44 40 38 31 29 31 32 31 31 29 32 27 29 25 21 19 17 18 21 23 22 21 23 20 18 18 20 22 18 20 20 23 24 23 23 23 26 25 25 25 26 28
39 37 40 43 39 35 26 29 30 28 33 29 31 30 31 30 22 19 18 14 14 21 22 25 25 24 18 15 16 16 15 21 20 21 22 22 23 24 25 27 26 25 25 27 28
38 32 38 36 30 34 31 34 31 29 30 31 30 29 30 25 21 20 16 18 20 24 22 28 20 16 15 22 25 25 23 18 20 18 24 25 22 25 25 27 28 26 26 27 29
37 38 42 36 27 28 28 25 26 26 27 26 26 29 29 23 21 21 19 17 25 28 25 25 18 13 13 16 23 24 25 23 21 22 21 17 22 26 26 28 28 28 27 28 30
36 34 34 35 34 31 26 25 24 28 28 27 28 28 24 20 19 17 16 21 25 34 38 27 25 20 19 20 24 22 23 24 20 19 20 21 23 24 25 26 27 27 28 28 29
33 33 36 29 29 30 28 27 25 29 31 30 27 28 26 19 18 16 20 24 27 31 30 24 24 25 24 24 24 23 21 22 22 23 18 21 20 24 26 26 26 28 29 29 29
34 30 33 34 30 28 31 27 29 31 30 28 26 28 27 20 21 15 19 22 23 26 26 27 27 27 25 25 23 22 23 23 22 21 22 21 23 28 29 28 27 26 29 30 31
42 37 35 36 31 29 31 31 31 31 29 29 29 26 25 27 25 25 29 30 30 28 25 25 27 25 24 26 26 22 24 22 23 24 20 15 21 28 27 28 29 26 27 30 32
Lifted_Index
15 15 15 15 15 15 15 15 15 15 15 14 14 14 14 14 14 13 12 13 13 13 13 12 12 11 10 9 7 5 3 2 2 2 2 2 2 1 0 -0 -1 -1 -2 -3 -3
15 15 15 15 15 15 15 15 15 15 15 15 14 14 14 14 13 12 12 12 13 13 13 12 11 10 10 9 8 5 4 2 2 2 2 2 1 1 0 0 -1 -1 -2 -3 -4
16 16 16 16 15 15 15 15 15 15 15 15 14 14 14 13 12 11 11 11 12 13 12 12 11 10 9 9 8 6 4 3 2 2 2 2 1 0 -0 -0 -1 -2 -3 -4 -4
16 16 16 16 15 15 15 15 15 15 15 15 15 14 14 13 11 10 9 9 11 12 12 11 10 9 9 9 8 7 5 4 3 3 2 2 1 0 -1 -1 -1 -2 -4 -4 -5
16 16 16 16 15 15 15 15 15 15 15 15 15 14 14 12 11 10 9 9 11 12 11 11 10 9 9 9 8 7 5 4 3 2 2 2 1 0 -1 -2 -2 -3 -4 -4 -5
16 16 16 16 15 15 15 14 15 15 15 15 14 14 12 11 11 11 10 10 11 11 11 10 10 10 9 8 8 7 6 4 3 2 1 1 1 1 0 -1 -2 -3 -3 -3 -4
16 16 16 16 15 15 15 14 15 15 15 14 14 13 12 11 11 11 10 10 9 10 10 10 10 10 9 8 8 7 6 4 3 2 1 1 1 1 1 -0 -1 -2 -2 -2 -3
16 16 16 15 15 15 14 14 15 15 14 14 13 12 11 11 11 11 10 9 9 9 9 9 9 9 9 8 7 6 5 4 3 2 1 1 1 2 1 0 -1 -2 -2 -2 -2
15 16 16 15 15 15 14 14 14 14 13 13 12 11 10 10 11 10 10 9 9 9 9 9 9 9 8 7 6 5 4 4 3 2 2 1 2 2 1 0 -1 -1 -2 -2 -2
15 15 15 15 15 14 14 13 12 12 11 11 11 10 9 9 9 10 10 9 9 9 8 8 8 7 7 6 4 4 4 4 4 3 2 1 1 2 1 0 -0 -1 -1 -2 -2
14 15 15 14 14 13 12 10 9 9 9 9 9 9 8 8 8 9 9 9 9 8 8 7 6 6 6 6 4 4 4 4 4 4 3 2 2 2 2 1 1 1 0 0 0
14 14 14 13 12 11 10 8 7 7 8 8 8 8 7 7 8 8 9 8 8 7 7 6 6 6 6 6 5 4 4 4 5 5 4 3 2 3 3 3 3 3 3 3 3
13 13 13 12 10 9 8 7 7 7 7 7 7 7 7 7 7 7 8 8 7 7 6 6 6 6 6 5 4 4 3 4 4 4 4 3 3 3 3 4 5 6 6 6 6
12 12 12 10 9 8 7 7 7 7 6 6 6 6 6 6 6 7 7 7 7 7 6 6 6 5 5 4 4 3 3 3 3 2 2 3 2 3 3 4 5 6 8 8 8
12 12 11 9 8 7 7 7 7 6 4 4 5 5 6 6 6 6 7 7 7 6 6 5 5 5 4 4 3 3 3 3 2 2 2 2 2 2 3 4 5 6 8 10 10
12 12 11 9 7 7 7 7 6 4 3 4 5 5 5 5 5 6 6 6 6 6 5 5 5 4 3 3 3 2 2 2 2 2 1 1 1 2 3 4 6 7 9 11 11
11 11 10 8 7 6 6 5 4 3 3 4 4 4 5 5 5 5 5 5 5 5 4 4 4 3 3 2 2 2 1 1 1 1 1 1 1 2 4 6 8 9 10 11 12
11 10 10 8 7 6 5 4 3 3 3 3 3 3 4 4 4 4 4 4 4 4 4 3 3 3 3 2 2 1 1 1 0 0 1 1 1 3 6 8 10 10 11 12 12
9 9 8 8 6 5 5 4 4 3 3 2 3 3 3 3 3 3 3 3 3 3 3 3 3 3 3 2 2 1 1 0 0 -0 0 0 1 3 5 8 9 10 11 11 12
8 7 7 6 6 5 4 4 4 3 2 2 2 2 2 3 3 3 3 3 3 2 3 3 3 3 3 2 2 1 0 0 -0 -0 -0 -0 1 2 3 5 8 9 10 11 12
6 5 5 5 5 5 5 5 5 4 3 2 2 2 2 2 2 2 2 2 2 2 2 2 3 3 3 2 2 1 0 -0 -0 -1 -0 -0 1 2 4 5 7 9 10 12 14
4 4 4 4 4 4 4 4 5 5 4 3 2 2 2 1 1 1 1 2 2 2 2 2 2 2 2 2 2 2 1 1 -0 -0 -0 0 2 5 7 8 9 10 12 14 15
3 3 3 3 3 3 3 4 4 4 4 3 3 2 2 1 1 1 2 2 2 2 2 2 2 2 2 2 2 2 2 2 1 1 1 1 3 6 9 10 11 12 13 15 16
3 3 3 3 3 3 3 3 3 4 4 3 3 3 2 2 1 2 2 2 2 3 3 2 2 1 1 2 2 2 3 3 3 3 2 3 4 7 9 11 12 13 14 15 16
3 3 3 3 3 3 3 3 3 3 3 3 3 3 3 3 3 3 3 3 3 3 3 3 2 1 2 2 3 3 4 4 4 4 4 4 6 8 10 11 13 14 15 15 15
4 4 3 3 3 3 3 3 3 4 4 4 4 4 4 4 4 4 4 4 4 4 4 3 2 2 3 4 4 5 5 6 6 6 6 6 7 10 12 13 13 14 14 15 15
5 5 4 4 4 4 4 4 4 4 5 5 5 5 5 5 5 5 5 5 5 4 4 3 3 3 3 4 5 5 6 6 7 7 7 7 8 11 13 13 13 14 14 14 15